Time,TemperatureF,DewpointF,PressureIn,WindDirection,WindDirectionDegrees,WindSpeedMPH,WindSpeedGustMPH,Humidity,HourlyPrecipIn,Conditions,Clouds,dailyrainin,SoftwareType,DateUTC
2013-03-02 00:00:00,40.4,34.7,29.98,NE,55,0.0,0.0,80,0.00,,,0.00,Wunderground v.1.15,2013-03-02 05:00:00,
2013-03-02 00:02:00,40.4,34.7,29.98,NE,55,0.0,0.0,80,0.00,,,0.00,Wunderground v.1.15,2013-03-02 05:02:00,
2013-03-02 00:04:00,40.4,35.0,29.98,NE,55,0.0,0.0,81,0.00,,,0.00,Wunderground v.1.15,2013-03-02 05:04:00,
2013-03-02 00:06:00,40.4,35.0,29.98,NE,55,0.0,0.0,81,0.00,,,0.00,Wunderground v.1.15,2013-03-02 05:06:00,
2013-03-02 00:12:00,40.4,34.7,29.98,NE,55,0.0,0.0,80,0.00,,,0.00,Wunderground v.1.15,2013-03-02 05:12:00,
2013-03-02 00:18:00,40.3,34.6,29.98,NE,55,0.0,0.0,80,0.00,,,0.00,Wunderground v.1.15,2013-03-02 05:18:00,
2013-03-02 00:24:00,40.3,34.9,29.98,NE,55,0.0,0.0,81,0.00,,,0.00,Wunderground v.1.15,2013-03-02 05:24:00,
2013-03-02 00:30:00,40.2,34.8,29.98,NE,55,0.0,0.0,81,0.00,,,0.00,Wunderground v.1.15,2013-03-02 05:30:00,
2013-03-02 00:36:00,40.1,34.7,29.98,NE,55,0.0,0.0,81,0.00,,,0.00,Wunderground v.1.15,2013-03-02 05:36:00,
2013-03-02 00:42:00,40.1,34.7,29.98,NE,55,0.0,0.0,81,0.00,,,0.00,Wunderground v.1.15,2013-03-02 05:42:00,
2013-03-02 00:48:00,40.1,34.7,29.98,NE,55,0.0,0.0,81,0.00,,,0.00,Wunderground v.1.15,2013-03-02 05:48:00,
2013-03-02 00:54:00,40.0,34.6,29.98,NE,55,0.0,0.0,81,0.00,,,0.00,Wunderground v.1.15,2013-03-02 05:54:00,
2013-03-02 01:00:00,40.0,34.9,29.98,NE,55,0.0,0.0,82,0.00,,,0.00,Wunderground v.1.15,2013-03-02 06:00:00,
2013-03-02 01:06:00,40.1,35.0,29.98,NE,55,0.0,0.0,82,0.00,,,0.00,Wunderground v.1.15,2013-03-02 06:06:00,
2013-03-02 01:12:00,40.1,35.4,29.98,NE,55,0.0,0.0,83,0.00,,,0.00,Wunderground v.1.15,2013-03-02 06:12:00,
2013-03-02 01:18:00,40.2,35.4,29.98,NE,55,0.0,0.0,83,0.00,,,0.00,Wunderground v.1.15,2013-03-02 06:18:00,
2013-03-02 01:24:00,40.1,35.4,29.98,NE,55,0.0,0.0,83,0.00,,,0.00,Wunderground v.1.15,2013-03-02 06:24:00,
2013-03-02 01:30:00,40.1,35.4,29.98,NE,55,0.0,0.0,83,0.00,,,0.00,Wunderground v.1.15,2013-03-02 06:30:00,
2013-03-02 01:36:00,40.0,35.6,29.98,NE,55,0.0,0.0,84,0.00,,,0.00,Wunderground v.1.15,2013-03-02 06:36:00,
2013-03-02 01:42:00,40.0,35.6,29.98,NE,55,0.0,0.0,84,0.00,,,0.00,Wunderground v.1.15,2013-03-02 06:42:00,
2013-03-02 01:48:00,40.0,35.6,29.98,NE,55,0.0,0.0,84,0.00,,,0.00,Wunderground v.1.15,2013-03-02 06:48:00,
2013-03-02 01:54:00,40.0,35.6,29.98,NE,55,0.0,0.0,84,0.00,,,0.00,Wunderground v.1.15,2013-03-02 06:54:00,
2013-03-02 02:00:00,40.1,35.4,29.98,NE,55,0.0,0.0,83,0.00,,,0.00,Wunderground v.1.15,2013-03-02 07:00:00,
2013-03-02 02:06:00,40.0,35.6,29.97,NE,55,0.0,0.0,84,0.00,,,0.00,Wunderground v.1.15,2013-03-02 07:06:00,
2013-03-02 02:12:00,40.0,35.6,29.98,NE,55,0.0,0.0,84,0.00,,,0.00,Wunderground v.1.15,2013-03-02 07:12:00,
2013-03-02 02:18:00,39.9,35.5,29.97,NE,55,0.0,0.0,84,0.00,,,0.00,Wunderground v.1.15,2013-03-02 07:18:00,
2013-03-02 02:24:00,39.8,35.4,29.97,NE,55,0.0,0.0,84,0.00,,,0.00,Wunderground v.1.15,2013-03-02 07:24:00,
2013-03-02 02:30:00,39.7,35.3,29.97,NE,55,0.0,0.0,84,0.00,,,0.00,Wunderground v.1.15,2013-03-02 07:30:00,
2013-03-02 02:36:00,39.7,35.0,29.97,NE,55,0.0,0.0,83,0.00,,,0.00,Wunderground v.1.15,2013-03-02 07:36:00,
2013-03-02 02:42:00,39.6,34.9,29.96,NE,55,0.0,0.0,83,0.00,,,0.00,Wunderground v.1.15,2013-03-02 07:42:00,
2013-03-02 02:48:00,39.5,34.2,29.96,NE,55,0.0,0.0,81,0.00,,,0.00,Wunderground v.1.15,2013-03-02 07:48:00,
2013-03-02 02:54:00,39.6,32.7,29.96,NE,56,0.0,0.0,76,0.00,,,0.00,Wunderground v.1.15,2013-03-02 07:54:00,
2013-03-02 03:00:00,39.8,32.2,29.96,NE,56,0.0,0.0,74,0.00,,,0.00,Wunderground v.1.15,2013-03-02 08:00:00,
2013-03-02 03:06:00,40.1,32.1,29.95,SSE,153,0.0,0.0,73,0.00,,,0.00,Wunderground v.1.15,2013-03-02 08:06:00,
2013-03-02 03:12:00,40.4,32.1,29.95,WSW,249,0.0,1.0,72,0.00,,,0.00,Wunderground v.1.15,2013-03-02 08:12:00,
2013-03-02 03:18:00,40.6,31.9,29.95,WSW,246,0.0,2.0,71,0.00,,,0.00,Wunderground v.1.15,2013-03-02 08:18:00,
2013-03-02 03:24:00,40.7,32.0,29.95,WSW,246,0.0,0.0,71,0.00,,,0.00,Wunderground v.1.15,2013-03-02 08:24:00,
2013-03-02 03:30:00,40.7,31.7,29.95,WSW,258,0.0,1.0,70,0.00,,,0.00,Wunderground v.1.15,2013-03-02 08:30:00,
2013-03-02 03:36:00,40.8,31.4,29.95,SW,234,0.0,1.0,69,0.00,,,0.00,Wunderground v.1.15,2013-03-02 08:36:00,
2013-03-02 03:42:00,40.8,31.4,29.95,WSW,244,0.0,1.0,69,0.00,,,0.00,Wunderground v.1.15,2013-03-02 08:42:00,
2013-03-02 03:48:00,40.9,31.1,29.95,WSW,239,1.0,1.0,68,0.00,,,0.00,Wunderground v.1.15,2013-03-02 08:48:00,
2013-03-02 03:54:00,40.9,30.8,29.95,SW,220,0.0,1.0,67,0.00,,,0.00,Wunderground v.1.15,2013-03-02 08:54:00,
2013-03-02 04:00:00,40.9,31.1,29.95,SW,214,0.0,0.0,68,0.00,,,0.00,Wunderground v.1.15,2013-03-02 09:00:00,
2013-03-02 04:06:00,40.8,30.7,29.95,SW,214,0.0,0.0,67,0.00,,,0.00,Wunderground v.1.15,2013-03-02 09:06:00,
2013-03-02 04:12:00,40.8,30.3,29.95,SSW,200,0.0,0.0,66,0.00,,,0.00,Wunderground v.1.15,2013-03-02 09:12:00,
2013-03-02 04:18:00,40.8,30.3,29.95,SSW,205,0.0,1.0,66,0.00,,,0.00,Wunderground v.1.15,2013-03-02 09:18:00,
2013-03-02 04:24:00,40.8,30.3,29.94,South,185,0.0,1.0,66,0.00,,,0.00,Wunderground v.1.15,2013-03-02 09:24:00,
2013-03-02 04:30:00,40.7,30.6,29.94,SW,221,1.0,1.0,67,0.00,,,0.00,Wunderground v.1.15,2013-03-02 09:30:00,
2013-03-02 04:36:00,40.7,30.2,29.94,SSW,210,0.0,1.0,66,0.00,,,0.00,Wunderground v.1.15,2013-03-02 09:36:00,
2013-03-02 04:42:00,40.7,30.2,29.94,SW,214,0.0,1.0,66,0.00,,,0.00,Wunderground v.1.15,2013-03-02 09:42:00,
2013-03-02 04:48:00,40.6,30.5,29.94,SW,218,0.0,1.0,67,0.00,,,0.00,Wunderground v.1.15,2013-03-02 09:48:00,
2013-03-02 04:54:00,40.6,30.5,29.94,SW,218,0.0,0.0,67,0.00,,,0.00,Wunderground v.1.15,2013-03-02 09:54:00,
2013-03-02 05:00:00,40.5,30.4,29.95,SW,218,0.0,0.0,67,0.00,,,0.00,Wunderground v.1.15,2013-03-02 10:00:00,
2013-03-02 05:06:00,40.4,30.3,29.94,SW,218,0.0,0.0,67,0.00,,,0.00,Wunderground v.1.15,2013-03-02 10:06:00,
2013-03-02 05:12:00,40.4,30.3,29.94,WSW,240,0.0,0.0,67,0.00,,,0.00,Wunderground v.1.15,2013-03-02 10:12:00,
2013-03-02 05:18:00,40.4,30.3,29.94,SW,217,1.0,2.0,67,0.00,,,0.00,Wunderground v.1.15,2013-03-02 10:18:00,
2013-03-02 05:24:00,40.3,30.2,29.94,SSW,210,0.0,1.0,67,0.00,,,0.00,Wunderground v.1.15,2013-03-02 10:24:00,
2013-03-02 05:30:00,40.3,30.2,29.94,SW,218,1.0,1.0,67,0.00,,,0.00,Wunderground v.1.15,2013-03-02 10:30:00,
2013-03-02 05:36:00,40.3,30.2,29.94,SW,230,1.0,1.0,67,0.00,,,0.00,Wunderground v.1.15,2013-03-02 10:36:00,
2013-03-02 05:42:00,40.3,29.8,29.95,SSW,200,0.0,0.0,66,0.00,,,0.00,Wunderground v.1.15,2013-03-02 10:42:00,
2013-03-02 05:48:00,40.3,29.8,29.95,SSW,205,0.0,0.0,66,0.00,,,0.00,Wunderground v.1.15,2013-03-02 10:48:00,
2013-03-02 05:54:00,40.3,29.8,29.95,SSW,205,0.0,2.0,66,0.00,,,0.00,Wunderground v.1.15,2013-03-02 10:54:00,
2013-03-02 06:00:00,40.2,29.7,29.95,SSW,210,0.0,2.0,66,0.00,,,0.00,Wunderground v.1.15,2013-03-02 11:00:00,
2013-03-02 06:06:00,40.2,29.7,29.95,WSW,248,1.0,2.0,66,0.00,,,0.00,Wunderground v.1.15,2013-03-02 11:06:00,
2013-03-02 06:12:00,40.2,29.4,29.95,SW,235,1.0,1.0,65,0.00,,,0.00,Wunderground v.1.15,2013-03-02 11:12:00,
2013-03-02 06:18:00,40.2,29.4,29.94,SW,222,0.0,1.0,65,0.00,,,0.00,Wunderground v.1.15,2013-03-02 11:18:00,
2013-03-02 06:24:00,40.1,29.6,29.95,SW,222,1.0,1.0,66,0.00,,,0.00,Wunderground v.1.15,2013-03-02 11:24:00,
2013-03-02 06:30:00,40.0,29.2,29.95,WSW,253,1.0,1.0,65,0.00,,,0.00,Wunderground v.1.15,2013-03-02 11:30:00,
2013-03-02 06:36:00,40.0,29.2,29.95,SW,233,2.0,2.0,65,0.00,,,0.00,Wunderground v.1.15,2013-03-02 11:36:00,
2013-03-02 06:42:00,40.0,28.8,29.95,SSW,205,2.0,3.0,64,0.00,,,0.00,Wunderground v.1.15,2013-03-02 11:42:00,
2013-03-02 06:48:00,39.9,29.1,29.95,SW,214,2.0,3.0,65,0.00,,,0.00,Wunderground v.1.15,2013-03-02 11:48:00,
2013-03-02 06:54:00,39.9,29.1,29.95,WSW,254,2.0,2.0,65,0.00,,,0.00,Wunderground v.1.15,2013-03-02 11:54:00,
2013-03-02 07:00:00,39.8,29.0,29.95,SSW,193,2.0,2.0,65,0.00,,,0.00,Wunderground v.1.15,2013-03-02 12:00:00,
2013-03-02 07:06:00,39.7,29.3,29.95,SSW,192,2.0,2.0,66,0.00,,,0.00,Wunderground v.1.15,2013-03-02 12:06:00,
2013-03-02 07:12:00,39.6,29.5,29.95,South,191,1.0,4.0,67,0.00,,,0.00,Wunderground v.1.15,2013-03-02 12:12:00,
2013-03-02 07:18:00,39.5,29.4,29.95,South,185,2.0,4.0,67,0.00,,,0.00,Wunderground v.1.15,2013-03-02 12:18:00,
2013-03-02 07:24:00,39.4,29.7,29.95,WSW,246,2.0,2.0,68,0.00,,,0.00,Wunderground v.1.15,2013-03-02 12:24:00,
2013-03-02 07:30:00,39.4,29.7,29.95,SSE,156,1.0,1.0,68,0.00,,,0.00,Wunderground v.1.15,2013-03-02 12:30:00,
2013-03-02 07:36:00,39.3,30.0,29.95,WSW,258,1.0,2.0,69,0.00,,,0.00,Wunderground v.1.15,2013-03-02 12:36:00,
2013-03-02 07:42:00,39.2,29.9,29.96,WSW,237,1.0,1.0,69,0.00,,,0.00,Wunderground v.1.15,2013-03-02 12:42:00,
2013-03-02 07:48:00,39.1,29.8,29.96,SSW,200,1.0,3.0,69,0.00,,,0.00,Wunderground v.1.15,2013-03-02 12:48:00,
2013-03-02 07:54:00,39.1,30.1,29.96,SE,143,0.0,3.0,70,0.00,,,0.00,Wunderground v.1.15,2013-03-02 12:54:00,
2013-03-02 08:00:00,39.0,30.0,29.97,SE,134,1.0,1.0,70,0.00,,,0.00,Wunderground v.1.15,2013-03-02 13:00:00,
2013-03-02 08:06:00,39.0,30.4,29.97,SSW,200,1.0,1.0,71,0.00,,,0.00,Wunderground v.1.15,2013-03-02 13:06:00,
2013-03-02 08:12:00,38.9,30.3,29.97,SW,218,1.0,1.0,71,0.00,,,0.00,Wunderground v.1.15,2013-03-02 13:12:00,
2013-03-02 08:18:00,38.9,30.6,29.97,SW,217,1.0,2.0,72,0.00,,,0.00,Wunderground v.1.15,2013-03-02 13:18:00,
2013-03-02 08:24:00,38.8,31.2,29.97,West,268,1.0,1.0,74,0.00,,,0.00,Wunderground v.1.15,2013-03-02 13:24:00,
2013-03-02 08:30:00,38.7,31.1,29.97,SSW,195,1.0,1.0,74,0.00,,,0.00,Wunderground v.1.15,2013-03-02 13:30:00,
2013-03-02 08:36:00,38.6,31.0,29.97,West,263,1.0,1.0,74,0.00,,,0.00,Wunderground v.1.15,2013-03-02 13:36:00,
2013-03-02 08:42:00,38.5,30.9,29.97,WSW,247,1.0,2.0,74,0.00,,,0.00,Wunderground v.1.15,2013-03-02 13:42:00,
2013-03-02 08:48:00,38.4,30.8,29.97,SSW,205,1.0,2.0,74,0.00,,,0.00,Wunderground v.1.15,2013-03-02 13:48:00,
2013-03-02 08:54:00,38.4,31.2,29.97,SSW,205,0.0,1.0,75,0.00,,,0.00,Wunderground v.1.15,2013-03-02 13:54:00,
2013-03-02 09:00:00,38.4,30.5,29.98,SSW,210,1.0,1.0,73,0.00,,,0.00,Wunderground v.1.15,2013-03-02 14:00:00,
2013-03-02 09:06:00,38.0,30.8,29.97,SE,140,2.0,2.0,75,0.00,,,0.00,Wunderground v.1.15,2013-03-02 14:06:00,
2013-03-02 09:12:00,37.7,31.1,29.97,SE,144,2.0,2.0,77,0.00,,,0.00,Wunderground v.1.15,2013-03-02 14:12:00,
2013-03-02 09:18:00,37.3,31.4,29.97,SSE,147,1.0,2.0,79,0.00,,,0.00,Wunderground v.1.15,2013-03-02 14:18:00,
2013-03-02 09:24:00,37.1,31.8,29.97,South,171,1.0,1.0,81,0.00,,,0.00,Wunderground v.1.15,2013-03-02 14:24:00,
2013-03-02 09:30:00,36.8,31.8,29.97,SSW,205,1.0,2.0,82,0.00,,,0.00,Wunderground v.1.15,2013-03-02 14:30:00,
2013-03-02 09:36:00,36.5,32.1,29.98,SE,145,1.0,2.0,84,0.00,,,0.00,Wunderground v.1.15,2013-03-02 14:36:00,
2013-03-02 09:42:00,36.3,32.2,29.98,SE,145,0.0,0.0,85,0.00,,,0.00,Wunderground v.1.15,2013-03-02 14:42:00,
2013-03-02 09:48:00,36.0,32.2,29.98,SE,143,0.0,0.0,86,0.00,,,0.00,Wunderground v.1.15,2013-03-02 14:48:00,
2013-03-02 09:54:00,35.6,32.1,29.98,SSE,158,0.0,1.0,87,0.00,,,0.00,Wunderground v.1.15,2013-03-02 14:54:00,
2013-03-02 10:00:00,35.1,31.9,29.98,SSW,210,0.0,1.0,88,0.00,,,0.00,Wunderground v.1.15,2013-03-02 15:00:00,
2013-03-02 10:06:00,34.8,31.9,29.98,SSE,148,0.0,1.0,89,0.00,,,0.00,Wunderground v.1.15,2013-03-02 15:06:00,
2013-03-02 10:12:00,34.6,32.0,29.98,South,190,0.0,1.0,90,0.00,,,0.01,Wunderground v.1.15,2013-03-02 15:12:00,
2013-03-02 10:18:00,34.4,32.0,29.98,SE,129,1.0,1.0,91,0.00,,,0.01,Wunderground v.1.15,2013-03-02 15:18:00,
2013-03-02 10:24:00,34.3,31.9,29.98,SE,145,0.0,1.0,91,0.00,,,0.01,Wunderground v.1.15,2013-03-02 15:24:00,
2013-03-02 10:30:00,34.3,31.9,29.98,SE,145,0.0,0.0,91,0.00,,,0.01,Wunderground v.1.15,2013-03-02 15:30:00,
2013-03-02 10:36:00,34.2,31.8,29.98,SE,145,0.0,0.0,91,0.00,,,0.02,Wunderground v.1.15,2013-03-02 15:36:00,
2013-03-02 10:42:00,34.2,32.1,29.98,SE,145,0.0,0.0,92,0.00,,,0.02,Wunderground v.1.15,2013-03-02 15:42:00,
2013-03-02 10:48:00,34.2,32.1,29.98,SE,145,0.0,0.0,92,0.00,,,0.02,Wunderground v.1.15,2013-03-02 15:48:00,
2013-03-02 10:54:00,34.2,32.1,29.98,SE,145,0.0,0.0,92,0.00,,,0.02,Wunderground v.1.15,2013-03-02 15:54:00,
2013-03-02 11:00:00,34.3,32.2,29.98,SE,145,0.0,0.0,92,0.00,,,0.03,Wunderground v.1.15,2013-03-02 16:00:00,
2013-03-02 11:06:00,34.4,32.3,29.98,SE,145,0.0,0.0,92,0.00,,,0.03,Wunderground v.1.15,2013-03-02 16:06:00,
2013-03-02 11:12:00,34.4,32.3,29.98,SE,145,0.0,0.0,92,0.00,,,0.03,Wunderground v.1.15,2013-03-02 16:12:00,
2013-03-02 11:18:00,34.5,32.4,29.98,SE,145,0.0,0.0,92,0.00,,,0.03,Wunderground v.1.15,2013-03-02 16:18:00,
2013-03-02 11:24:00,34.6,32.5,29.98,SE,145,0.0,0.0,92,0.00,,,0.03,Wunderground v.1.15,2013-03-02 16:24:00,
2013-03-02 11:30:00,34.6,32.5,29.98,SE,145,0.0,0.0,92,0.00,,,0.03,Wunderground v.1.15,2013-03-02 16:30:00,
2013-03-02 11:36:00,34.6,32.5,29.98,SE,145,0.0,0.0,92,0.00,,,0.04,Wunderground v.1.15,2013-03-02 16:36:00,
2013-03-02 11:42:00,34.6,32.5,29.98,SE,145,0.0,0.0,92,0.00,,,0.04,Wunderground v.1.15,2013-03-02 16:42:00,
2013-03-02 11:48:00,34.7,32.6,29.98,SE,145,0.0,0.0,92,0.00,,,0.04,Wunderground v.1.15,2013-03-02 16:48:00,
2013-03-02 11:54:00,35.1,33.3,29.98,SE,145,0.0,0.0,93,0.00,,,0.04,Wunderground v.1.15,2013-03-02 16:54:00,
2013-03-02 12:00:00,35.4,33.3,29.98,East,81,0.0,1.0,92,0.00,,,0.05,Wunderground v.1.15,2013-03-02 17:00:00,
2013-03-02 12:06:00,35.6,33.5,29.97,East,80,0.0,1.0,92,0.00,,,0.05,Wunderground v.1.15,2013-03-02 17:06:00,
2013-03-02 12:12:00,36.0,33.9,29.97,East,80,0.0,0.0,92,0.05,,,0.06,Wunderground v.1.15,2013-03-02 17:12:00,
2013-03-02 12:18:00,36.4,34.0,29.97,North,10,0.0,0.0,91,0.10,,,0.07,Wunderground v.1.15,2013-03-02 17:18:00,
2013-03-02 12:24:00,37.2,34.8,29.97,North,349,0.0,2.0,91,0.06,,,0.08,Wunderground v.1.15,2013-03-02 17:24:00,
2013-03-02 12:30:00,37.4,34.7,29.97,NE,46,1.0,2.0,90,0.13,,,0.09,Wunderground v.1.15,2013-03-02 17:30:00,
2013-03-02 12:36:00,37.4,34.7,29.96,North,357,1.0,2.0,90,0.07,,,0.09,Wunderground v.1.15,2013-03-02 17:36:00,
2013-03-02 12:42:00,37.4,34.7,29.96,NNE,13,1.0,1.0,90,0.06,,,0.10,Wunderground v.1.15,2013-03-02 17:42:00,
2013-03-02 12:48:00,37.3,34.6,29.96,NNE,31,1.0,1.0,90,0.06,,,0.11,Wunderground v.1.15,2013-03-02 17:48:00,
2013-03-02 12:54:00,37.3,34.9,29.96,NE,39,1.0,1.0,91,0.06,,,0.11,Wunderground v.1.15,2013-03-02 17:54:00,
2013-03-02 13:00:00,37.4,35.3,29.95,NE,40,1.0,1.0,92,0.05,,,0.11,Wunderground v.1.15,2013-03-02 18:00:00,
2013-03-02 13:06:00,37.7,35.3,29.95,North,349,1.0,2.0,91,0.00,,,0.11,Wunderground v.1.15,2013-03-02 18:06:00,
2013-03-02 13:12:00,38.0,35.6,29.95,NNW,332,1.0,1.0,91,0.00,,,0.12,Wunderground v.1.15,2013-03-02 18:12:00,
2013-03-02 13:18:00,38.4,36.0,29.95,ENE,57,0.0,2.0,91,0.00,,,0.12,Wunderground v.1.15,2013-03-02 18:18:00,
2013-03-02 13:24:00,38.6,36.2,29.94,NNW,333,1.0,1.0,91,0.04,,,0.13,Wunderground v.1.15,2013-03-02 18:24:00,
2013-03-02 13:30:00,39.5,37.4,29.94,North,355,1.0,4.0,92,0.04,,,0.13,Wunderground v.1.15,2013-03-02 18:30:00,
2013-03-02 13:36:00,40.3,37.9,29.94,North,353,1.0,4.0,91,0.04,,,0.13,Wunderground v.1.15,2013-03-02 18:36:00,
2013-03-02 13:42:00,40.9,37.9,29.94,NE,54,0.0,1.0,89,0.00,,,0.13,Wunderground v.1.15,2013-03-02 18:42:00,
2013-03-02 13:48:00,41.1,37.5,29.94,NE,52,1.0,1.0,87,0.00,,,0.13,Wunderground v.1.15,2013-03-02 18:48:00,
2013-03-02 13:54:00,41.4,38.1,29.94,NNE,16,1.0,2.0,88,0.00,,,0.14,Wunderground v.1.15,2013-03-02 18:54:00,
2013-03-02 14:00:00,41.9,38.6,29.93,North,359,0.0,2.0,88,0.00,,,0.14,Wunderground v.1.15,2013-03-02 19:00:00,
2013-03-02 14:06:00,42.4,38.2,29.93,NNE,17,1.0,3.0,85,0.00,,,0.14,Wunderground v.1.15,2013-03-02 19:06:00,
2013-03-02 14:12:00,42.7,37.6,29.92,NNW,328,1.0,3.0,82,0.00,,,0.14,Wunderground v.1.15,2013-03-02 19:12:00,
2013-03-02 14:18:00,42.4,37.9,29.92,NNW,346,2.0,5.0,84,0.00,,,0.14,Wunderground v.1.15,2013-03-02 19:18:00,
2013-03-02 14:24:00,42.2,37.1,29.92,NW,320,2.0,3.0,82,0.00,,,0.14,Wunderground v.1.15,2013-03-02 19:24:00,
2013-03-02 14:30:00,42.2,37.1,29.92,NE,54,2.0,2.0,82,0.00,,,0.14,Wunderground v.1.15,2013-03-02 19:30:00,
2013-03-02 14:36:00,42.2,36.8,29.92,NW,323,1.0,2.0,81,0.00,,,0.14,Wunderground v.1.15,2013-03-02 19:36:00,
2013-03-02 14:42:00,42.1,36.4,29.92,ENE,68,1.0,1.0,80,0.00,,,0.14,Wunderground v.1.15,2013-03-02 19:42:00,
2013-03-02 14:48:00,42.4,37.9,29.92,NNE,24,1.0,2.0,84,0.00,,,0.14,Wunderground v.1.15,2013-03-02 19:48:00,
2013-03-02 14:54:00,42.9,37.8,29.92,NNE,12,1.0,1.0,82,0.00,,,0.14,Wunderground v.1.15,2013-03-02 19:54:00,
2013-03-02 15:00:00,43.3,37.9,29.92,NNW,342,1.0,1.0,81,0.00,,,0.14,Wunderground v.1.15,2013-03-02 20:00:00,
2013-03-02 15:06:00,43.8,38.3,29.91,WSW,258,1.0,4.0,81,0.00,,,0.14,Wunderground v.1.15,2013-03-02 20:06:00,
2013-03-02 15:12:00,45.0,38.2,29.91,NE,52,2.0,2.0,77,0.00,,,0.14,Wunderground v.1.15,2013-03-02 20:12:00,
2013-03-02 15:18:00,45.4,38.3,29.91,North,6,1.0,5.0,76,0.00,,,0.14,Wunderground v.1.15,2013-03-02 20:18:00,
2013-03-02 15:24:00,46.1,37.9,29.91,NE,52,2.0,5.0,73,0.00,,,0.14,Wunderground v.1.15,2013-03-02 20:24:00,
2013-03-02 15:30:00,45.8,37.6,29.91,NW,319,2.0,2.0,73,0.00,,,0.14,Wunderground v.1.15,2013-03-02 20:30:00,
2013-03-02 15:36:00,46.0,37.5,29.91,NE,45,2.0,3.0,72,0.00,,,0.14,Wunderground v.1.15,2013-03-02 20:36:00,
2013-03-02 15:42:00,45.7,36.8,29.91,ENE,58,2.0,3.0,71,0.00,,,0.14,Wunderground v.1.15,2013-03-02 20:42:00,
2013-03-02 15:48:00,45.1,37.0,29.91,NNE,22,2.0,4.0,73,0.00,,,0.14,Wunderground v.1.15,2013-03-02 20:48:00,
2013-03-02 15:54:00,44.7,37.3,29.91,NNE,16,1.0,1.0,75,0.00,,,0.14,Wunderground v.1.15,2013-03-02 20:54:00,
2013-03-02 16:00:00,44.4,36.6,29.91,NE,50,1.0,1.0,74,0.00,,,0.14,Wunderground v.1.15,2013-03-02 21:00:00,
2013-03-02 16:06:00,44.3,36.9,29.91,NW,312,1.0,4.0,75,0.00,,,0.14,Wunderground v.1.15,2013-03-02 21:06:00,
2013-03-02 16:12:00,44.4,37.0,29.91,NNW,337,2.0,2.0,75,0.00,,,0.14,Wunderground v.1.15,2013-03-02 21:12:00,
2013-03-02 16:18:00,44.5,36.7,29.91,NE,56,1.0,5.0,74,0.00,,,0.14,Wunderground v.1.15,2013-03-02 21:18:00,
2013-03-02 16:24:00,44.5,36.7,29.91,NE,46,1.0,2.0,74,0.00,,,0.14,Wunderground v.1.15,2013-03-02 21:24:00,
2013-03-02 16:30:00,44.3,36.5,29.91,NNW,347,1.0,1.0,74,0.00,,,0.14,Wunderground v.1.15,2013-03-02 21:30:00,
2013-03-02 16:36:00,44.3,36.9,29.91,North,3,1.0,1.0,75,0.00,,,0.14,Wunderground v.1.15,2013-03-02 21:36:00,
2013-03-02 16:42:00,44.3,36.5,29.91,North,2,1.0,1.0,74,0.00,,,0.14,Wunderground v.1.15,2013-03-02 21:42:00,
2013-03-02 16:48:00,44.2,36.1,29.91,ENE,57,2.0,2.0,73,0.00,,,0.14,Wunderground v.1.15,2013-03-02 21:48:00,
2013-03-02 16:54:00,44.1,36.3,29.91,ENE,58,1.0,3.0,74,0.00,,,0.14,Wunderground v.1.15,2013-03-02 21:54:00,
2013-03-02 17:00:00,43.8,36.0,29.93,East,79,2.0,5.0,74,0.00,,,0.14,Wunderground v.1.15,2013-03-02 22:00:00,
2013-03-02 17:06:00,42.2,35.5,29.93,SE,129,2.0,5.0,77,0.00,,,0.14,Wunderground v.1.15,2013-03-02 22:06:00,
2013-03-02 17:12:00,40.2,34.8,29.94,NE,48,2.0,4.0,81,0.00,,,0.15,Wunderground v.1.15,2013-03-02 22:12:00,
2013-03-02 17:18:00,38.5,34.1,29.94,East,98,2.0,4.0,84,0.00,,,0.15,Wunderground v.1.15,2013-03-02 22:18:00,
2013-03-02 17:24:00,37.4,33.6,29.94,South,172,1.0,1.0,86,0.00,,,0.15,Wunderground v.1.15,2013-03-02 22:24:00,
2013-03-02 17:30:00,36.8,33.3,29.94,SSW,193,0.0,0.0,87,0.00,,,0.15,Wunderground v.1.15,2013-03-02 22:30:00,
2013-03-02 17:36:00,36.5,33.6,29.94,SSW,193,0.0,0.0,89,0.00,,,0.15,Wunderground v.1.15,2013-03-02 22:36:00,
2013-03-02 17:42:00,36.4,33.7,29.94,SSW,193,0.0,0.0,90,0.00,,,0.16,Wunderground v.1.15,2013-03-02 22:42:00,
2013-03-02 17:48:00,36.4,34.0,29.94,SSW,193,0.0,0.0,91,0.00,,,0.16,Wunderground v.1.15,2013-03-02 22:48:00,
2013-03-02 17:54:00,36.6,34.5,29.94,SSW,205,0.0,0.0,92,0.00,,,0.16,Wunderground v.1.15,2013-03-02 22:54:00,
2013-03-02 18:00:00,36.6,34.5,29.93,WSW,254,0.0,0.0,92,0.00,,,0.16,Wunderground v.1.15,2013-03-02 23:00:00,
2013-03-02 18:06:00,36.8,34.7,29.94,WSW,254,0.0,0.0,92,0.00,,,0.17,Wunderground v.1.15,2013-03-02 23:06:00,
2013-03-02 18:12:00,36.8,34.7,29.94,WSW,254,0.0,0.0,92,0.00,,,0.17,Wunderground v.1.15,2013-03-02 23:12:00,
2013-03-02 18:18:00,36.8,34.7,29.94,WSW,254,0.0,0.0,92,0.00,,,0.17,Wunderground v.1.15,2013-03-02 23:18:00,
2013-03-02 18:24:00,36.8,34.7,29.94,NE,36,0.0,1.0,92,0.00,,,0.17,Wunderground v.1.15,2013-03-02 23:24:00,
2013-03-02 18:30:00,36.8,35.0,29.94,NE,36,0.0,0.0,93,0.00,,,0.17,Wunderground v.1.15,2013-03-02 23:30:00,
2013-03-02 18:36:00,36.8,35.0,29.94,NE,36,0.0,0.0,93,0.00,,,0.17,Wunderground v.1.15,2013-03-02 23:36:00,
2013-03-02 18:42:00,36.7,34.9,29.95,NE,36,0.0,0.0,93,0.00,,,0.17,Wunderground v.1.15,2013-03-02 23:42:00,
2013-03-02 18:48:00,36.6,34.8,29.95,NE,36,0.0,0.0,93,0.00,,,0.17,Wunderground v.1.15,2013-03-02 23:48:00,
2013-03-02 18:54:00,36.6,34.8,29.95,NE,36,0.0,0.0,93,0.00,,,0.17,Wunderground v.1.15,2013-03-02 23:54:00,
2013-03-02 19:00:00,36.6,35.0,29.95,NE,36,0.0,0.0,94,0.00,,,0.17,Wunderground v.1.15,2013-03-03 00:00:00,
2013-03-02 19:06:00,36.7,35.1,29.95,NE,36,0.0,0.0,94,0.00,,,0.17,Wunderground v.1.15,2013-03-03 00:06:00,
2013-03-02 19:12:00,36.8,35.2,29.95,NNE,30,0.0,1.0,94,0.00,,,0.17,Wunderground v.1.15,2013-03-03 00:12:00,
2013-03-02 19:18:00,36.9,35.3,29.95,NNE,30,0.0,1.0,94,0.00,,,0.17,Wunderground v.1.15,2013-03-03 00:18:00,
2013-03-02 19:24:00,37.0,35.4,29.96,NNE,30,0.0,0.0,94,0.00,,,0.17,Wunderground v.1.15,2013-03-03 00:24:00,
2013-03-02 19:30:00,37.0,35.4,29.96,NNE,30,0.0,0.0,94,0.00,,,0.17,Wunderground v.1.15,2013-03-03 00:30:00,
2013-03-02 19:36:00,37.1,35.5,29.96,NNE,30,0.0,0.0,94,0.00,,,0.17,Wunderground v.1.15,2013-03-03 00:36:00,
2013-03-02 19:42:00,37.1,35.5,29.96,NNE,30,0.0,0.0,94,0.00,,,0.17,Wunderground v.1.15,2013-03-03 00:42:00,
2013-03-02 19:48:00,37.2,35.6,29.96,NNE,30,0.0,0.0,94,0.00,,,0.17,Wunderground v.1.15,2013-03-03 00:48:00,
2013-03-02 19:54:00,37.2,35.6,29.97,NNE,30,0.0,0.0,94,0.00,,,0.17,Wunderground v.1.15,2013-03-03 00:54:00,
2013-03-02 20:00:00,37.2,35.6,29.96,NNE,30,0.0,0.0,94,0.00,,,0.17,Wunderground v.1.15,2013-03-03 01:00:00,
2013-03-02 20:06:00,37.2,35.6,29.97,NNE,30,0.0,0.0,94,0.00,,,0.17,Wunderground v.1.15,2013-03-03 01:06:00,
2013-03-02 20:12:00,37.2,35.6,29.97,NNE,30,0.0,0.0,94,0.00,,,0.17,Wunderground v.1.15,2013-03-03 01:12:00,
2013-03-02 20:18:00,37.2,35.6,29.97,NNE,30,0.0,0.0,94,0.00,,,0.17,Wunderground v.1.15,2013-03-03 01:18:00,
2013-03-02 20:24:00,37.2,35.6,29.97,NNE,30,0.0,0.0,94,0.00,,,0.17,Wunderground v.1.15,2013-03-03 01:24:00,
2013-03-02 20:30:00,37.2,35.6,29.97,NNE,30,0.0,0.0,94,0.00,,,0.17,Wunderground v.1.15,2013-03-03 01:30:00,
2013-03-02 20:36:00,37.2,35.6,29.97,NNE,30,0.0,0.0,94,0.00,,,0.17,Wunderground v.1.15,2013-03-03 01:36:00,
2013-03-02 20:42:00,37.2,35.6,29.98,NNE,30,0.0,0.0,94,0.00,,,0.17,Wunderground v.1.15,2013-03-03 01:42:00,
2013-03-02 20:48:00,37.2,35.6,29.98,NNE,30,0.0,0.0,94,0.00,,,0.17,Wunderground v.1.15,2013-03-03 01:48:00,
2013-03-02 20:54:00,37.2,35.6,29.98,NNE,32,0.0,0.0,94,0.00,,,0.17,Wunderground v.1.15,2013-03-03 01:54:00,
2013-03-02 21:00:00,37.2,35.4,29.98,SSE,160,0.0,0.0,93,0.00,,,0.17,Wunderground v.1.15,2013-03-03 02:00:00,
2013-03-02 21:06:00,37.2,34.3,29.99,NE,49,0.0,0.0,89,0.00,,,0.17,Wunderground v.1.15,2013-03-03 02:06:00,
2013-03-02 21:12:00,37.3,34.1,29.99,ENE,66,0.0,0.0,88,0.00,,,0.17,Wunderground v.1.15,2013-03-03 02:12:00,
2013-03-02 21:18:00,37.3,33.8,29.99,ENE,66,0.0,0.0,87,0.00,,,0.17,Wunderground v.1.15,2013-03-03 02:18:00,
2013-03-02 21:24:00,37.2,33.7,29.99,ENE,66,0.0,0.0,87,0.00,,,0.17,Wunderground v.1.15,2013-03-03 02:24:00,
2013-03-02 21:30:00,37.1,33.6,30.00,ENE,66,0.0,0.0,87,0.00,,,0.17,Wunderground v.1.15,2013-03-03 02:30:00,
2013-03-02 21:36:00,37.1,33.6,30.00,ENE,68,0.0,0.0,87,0.00,,,0.17,Wunderground v.1.15,2013-03-03 02:36:00,
2013-03-02 21:42:00,37.1,33.3,30.00,ESE,102,0.0,0.0,86,0.00,,,0.17,Wunderground v.1.15,2013-03-03 02:42:00,
2013-03-02 21:48:00,37.1,32.7,30.00,ESE,122,0.0,2.0,84,0.00,,,0.17,Wunderground v.1.15,2013-03-03 02:48:00,
2013-03-02 21:54:00,37.1,31.8,30.00,SW,223,0.0,1.0,81,0.00,,,0.17,Wunderground v.1.15,2013-03-03 02:54:00,
2013-03-02 22:00:00,37.1,31.5,30.00,East,85,0.0,0.0,80,0.00,,,0.17,Wunderground v.1.15,2013-03-03 03:00:00,
2013-03-02 22:06:00,37.0,31.1,30.00,NNE,28,0.0,3.0,79,0.00,,,0.17,Wunderground v.1.15,2013-03-03 03:06:00,
2013-03-02 22:12:00,36.7,30.5,30.01,ESE,122,0.0,0.0,78,0.00,,,0.17,Wunderground v.1.15,2013-03-03 03:12:00,
2013-03-02 22:18:00,36.5,30.3,30.01,ESE,122,0.0,0.0,78,0.00,,,0.17,Wunderground v.1.15,2013-03-03 03:18:00,
2013-03-02 22:24:00,36.1,30.8,30.01,ESE,122,0.0,0.0,81,0.00,,,0.17,Wunderground v.1.15,2013-03-03 03:24:00,
2013-03-02 22:30:00,35.5,30.5,30.01,ESE,122,0.0,0.0,82,0.00,,,0.17,Wunderground v.1.15,2013-03-03 03:30:00,
2013-03-02 22:36:00,35.2,29.3,30.01,SSW,200,0.0,1.0,79,0.00,,,0.17,Wunderground v.1.15,2013-03-03 03:36:00,
2013-03-02 22:42:00,35.1,28.9,30.01,SSW,210,0.0,0.0,78,0.00,,,0.17,Wunderground v.1.15,2013-03-03 03:42:00,
2013-03-02 22:48:00,34.8,29.0,30.01,SSW,210,0.0,0.0,79,0.00,,,0.17,Wunderground v.1.15,2013-03-03 03:48:00,
2013-03-02 22:54:00,34.5,29.6,30.01,SSW,210,0.0,0.0,82,0.00,,,0.17,Wunderground v.1.15,2013-03-03 03:54:00,
2013-03-02 23:00:00,34.1,29.2,30.01,SSW,210,0.0,0.0,82,0.00,,,0.17,Wunderground v.1.15,2013-03-03 04:00:00,
2013-03-02 23:06:00,33.7,28.2,30.01,SSE,164,0.0,1.0,80,0.00,,,0.17,Wunderground v.1.15,2013-03-03 04:06:00,
2013-03-02 23:12:00,33.7,27.6,30.01,SE,145,0.0,0.0,78,0.00,,,0.17,Wunderground v.1.15,2013-03-03 04:12:00,
2013-03-02 23:18:00,33.7,27.3,30.01,SSE,150,0.0,0.0,77,0.00,,,0.17,Wunderground v.1.15,2013-03-03 04:18:00,
2013-03-02 23:24:00,33.6,27.2,30.01,SSW,196,0.0,1.0,77,0.00,,,0.17,Wunderground v.1.15,2013-03-03 04:24:00,
2013-03-02 23:30:00,33.5,26.7,30.01,SE,137,0.0,0.0,76,0.00,,,0.17,Wunderground v.1.15,2013-03-03 04:30:00,
2013-03-02 23:36:00,33.3,26.9,30.01,SE,137,0.0,0.0,77,0.00,,,0.17,Wunderground v.1.15,2013-03-03 04:36:00,
2013-03-02 23:42:00,33.1,26.4,30.00,SE,145,0.0,0.0,76,0.00,,,0.17,Wunderground v.1.15,2013-03-03 04:42:00,
2013-03-02 23:48:00,32.9,26.5,30.00,SSE,149,0.0,0.0,77,0.00,,,0.17,Wunderground v.1.15,2013-03-03 04:48:00,
2013-03-02 23:54:00,32.7,26.6,30.00,SE,144,0.0,0.0,78,0.00,,,0.17,Wunderground v.1.15,2013-03-03 04:54:00,